Regional Weather Roundup
Issued by NWS

Home | Current Version | Previous Version | Graphics & Text | Print | Product List | Glossary On
Versions: 1 2 3 4 5 6 7 8 9 10 11 12 13 14 15 16 17 18 19 20 21 22 23 24 25 26 27 28 29 30 31 32 33 34 35 36 37 38 39 40 41 42 43 44 45 46 47 48 49 50
000
ASUS43 KBIS 202302
RWRND

NORTH DAKOTA REGIONAL WEATHER ROUNDUP
NATIONAL WEATHER SERVICE BISMARCK ND
600 PM CDT FRI OCT 20 2017

NOTE: "FAIR" INDICATES FEW OR NO CLOUDS BELOW 12,000 FEET WITH NO
SIGNIFICANT WEATHER AND/OR OBSTRUCTIONS TO VISIBILITY.


NDZ001>003-009>011-017-210000-
NORTHWEST NORTH DAKOTA

CITY           SKY/WX    TMP DP  RH WIND       PRES   REMARKS
WILLISTON        N/A    N/A N/A N/A MISG      29.19F
MINOT          CLEAR     77  40  26 SE9       29.22F
MINOT AFB      CLEAR     74  38  27 S7        29.20F
$$

NDZ018>021-031>035-040>046-210000-
SOUTHWEST NORTH DAKOTA

CITY           SKY/WX    TMP DP  RH WIND       PRES   REMARKS
BISMARCK       PTCLDY    76  49  38 S12       29.28R
DICKINSON      CLEAR     77  40  26 SE7       29.21F
GARRISON         N/A     74  47  38 SE13      29.24S
HETTINGER ARPT CLEAR     80  33  18 SW15      29.26S
$$

NDZ004>008-012>016-024-026-027-054-210000-
NORTHEAST NORTH DAKOTA

CITY           SKY/WX    TMP DP  RH WIND       PRES   REMARKS
GRAND FORKS    MOCLDY    75  54  47 S20G35    29.37F
GRND FRKS AFB  MOCLDY    73  52  46 S22G33    29.37S
DEVILS LAKE    CLOUDY    66  51  58 SE18      29.31F
$$

NDZ022-023-025-028>030-036>039-047>053-210000-
SOUTHEAST NORTH DAKOTA

CITY           SKY/WX    TMP DP  RH WIND       PRES   REMARKS
FARGO          CLEAR     75  54  47 S20G35    29.43R
JAMESTOWN      MOCLDY    70  52  52 S13       29.35F
$$





USA.gov is the U.S. government's official web portal to all federal, state and local government web resources and services.